Flag Weather past 2 weeks in Durrës, Albania

Now
54 °F

Broken clouds.


Feels Like: 53 °F
Forecast: 60 / 69 °F
Wind: 5 mph from South

Location: Tirana Airport

Current Time: Nov 28, 2014 at 8:35:21 AM

Latest Report: Nov 28, 2014 at 7:50 AM


Visibility: N/A

Pressure: 30.09 "Hg

Humidity: 94%

Dew point: 52 °F

Location of DurrësLocation

Historic Weather in Durrës — Graph

°F

Durrës temperature yesterday

Maximum temperature yesterday: 57 °F (at 1:20 PM)
Minimum temperature yesterday: 50 °F (at 3:20 AM)
Average temperature yesterday: 53 °F

Past Weeks' High & Low Weather Summary

 TemperatureHumidityPressure
High70 °F (Nov 14, 1:20 PM)100% (Nov 20, 6:20 AM)30.30 "Hg (Nov 20, 6:20 AM)
Low34 °F (Nov 21, 5:50 AM)34% (Nov 22, 2:20 PM)29.74 "Hg (Nov 13, 11:50 AM)
Average52 °F80%30.05 "Hg
* Reported Nov 13 7:20 AM — Nov 28 7:20 AM, Durrës, Weather by CustomWeather, © 2014

Note: Actual official high and low records may vary slightly from our data, if they occured in-between our weather recording intervals... More about our weather records

Advertising

Durrës weather history for previous 24 hours

 ConditionsComfort  
Time TempWeatherWind HumidityBarometerVisibility
7:20 AM
Nov 28
54 °FBroken clouds.3 mph94%30.09 "Hg5 mi
6:50 AM54 °FBroken clouds.1 mph94%30.07 "HgN/A
6:20 AM54 °FPartly cloudy.2 mph94%30.07 "HgN/A
5:50 AM54 °FPartly cloudy.2 mph94%30.07 "HgN/A
5:20 AM54 °FPartly cloudy.2 mph94%30.07 "HgN/A
4:20 AM54 °FPartly cloudy.No wind94%30.07 "HgN/A
3:50 AM54 °FLight rain. Partly cloudy.3 mph94%30.07 "HgN/A
3:20 AM54 °FLight rain. Passing clouds.3 mph94%30.04 "HgN/A
2:50 AM54 °FPassing clouds.2 mph94%30.04 "HgN/A
2:20 AM54 °FPartly cloudy.2 mph94%30.04 "HgN/A
1:50 AM54 °FLight rain. Partly cloudy.2 mph94%30.07 "Hg5 mi
1:20 AM54 °FPartly cloudy.6 mph94%30.04 "Hg4 mi
12:50 AM52 °FFog.2 mph94%30.04 "Hg3 mi
12:20 AM52 °FFog.3 mph94%30.04 "Hg1 mi
11:50 PM
Nov 27
52 °FFog.2 mph100%30.04 "Hg1 mi
11:20 PM52 °FFog.No wind94%30.04 "Hg1 mi
10:50 PM52 °FFog.No wind94%30.04 "Hg1 mi
10:20 PM52 °FFog.No wind94%30.04 "Hg1 mi
9:50 PM52 °FFog.No wind94%30.04 "Hg1 mi
9:20 PM52 °FFog.2 mph94%30.04 "Hg1 mi
8:50 PM52 °FFog.2 mph94%30.01 "Hg1 mi
8:20 PM52 °FFog.5 mph94%30.01 "Hg1 mi
7:50 PM52 °FFog.3 mph94%30.01 "Hg1 mi
7:20 PM52 °FFog.No wind94%30.01 "Hg0 mi
6:50 PM52 °FFog.2 mph94%30.01 "Hg1 mi
6:20 PM50 °FFog.3 mph94%30.01 "Hg0 mi
5:50 PM52 °FFog.5 mph94%30.01 "Hg0 mi
5:20 PM54 °FFog.No wind94%29.98 "Hg1 mi
4:20 PM55 °FFog.No wind94%29.98 "Hg2 mi
3:50 PM55 °FFog.2 mph94%29.98 "Hg3 mi
3:20 PM55 °FFog.3 mph94%29.98 "Hg3 mi
2:50 PM57 °FPartly sunny.No wind88%29.98 "Hg4 mi
2:20 PM57 °FPartly sunny.2 mph88%29.98 "Hg5 mi
1:50 PM57 °FBroken clouds.No wind88%29.98 "Hg5 mi
1:20 PM57 °FPartly sunny.2 mph88%29.98 "Hg4 mi
12:50 PM55 °FFog.3 mph94%29.98 "Hg2 mi
12:20 PM55 °FFog.2 mph94%30.01 "Hg2 mi
11:50 AM55 °FFog.2 mph88%30.01 "Hg2 mi
11:20 AM54 °FFog.3 mph94%30.01 "Hg1 mi
10:50 AM55 °FFog.3 mph94%30.01 "Hg2 mi
10:20 AM55 °FFog.5 mph88%30.01 "Hg1 mi
9:20 AM54 °FLight rain. Fog.5 mph94%30.04 "Hg1 mi
8:50 AM54 °FDrizzle. More clouds than sun.2 mph94%30.04 "Hg2 mi
8:20 AM52 °FFog.2 mph94%30.01 "Hg1 mi
Weather by CustomWeather, © 2014

See weather overviewHow to use our weather pages